Deer Park, WA
on Friday, December 14, 2012

Friday
Previous Day Next Day
Daily Summary
 ActualAverageRecord
Temperature
Mean Temperature °F 25°F  
Max Temperature 30°F 32°F 51°F (2002)
Min Temperature 22°F 19°F 3°F (2008)
Degree Days
Heating Degree Days 39 40  
Month to date heating degree days 456 539  
Since 1 July heating degree days 2193 2542  
Cooling Degree Days 0 0  
Month to date cooling degree days 0 0  
Year to date cooling degree days 232 187  
Moisture
Dew Point 27°F   
Average Humidity 96    
Maximum Humidity 100    
Minimum Humidity 92    
Precipitation
Precipitation 0.06 in 0.09 in 0.93 in (2002)
Month to date precipitation 1.70 1.24  
Year to date precipitation 25.81 20.63  
Wind
Wind Speed 0 mph   
Max Wind Speed 3 mph   
Max Gust Speed 5 mph   
Visibility 2 miles   
Events Fog , Snow   

Key: T is trace of precipitation, MM is missing value
Source: NWS Daily Summary
Time(PST)TemperatureDew PointHumidity Pressure Visibility Wind DirectionWind SpeedGust SpeedPrecipitationEvents Conditions
12:03 AM 24.8°F 23.0°F 93% 29.81 in 1.2 miles Calm Calm - N/A   Partly Cloudy
12:08 AM 24.8°F 23.0°F 93% 29.81 in 0.8 miles Calm Calm - N/A   Mist
12:25 AM 23.0°F 21.2°F 93% 29.80 in 0.8 miles Calm Calm - N/A   Clear
12:53 AM 23.0°F 21.0°F 92% 29.87 in 0.8 miles Calm Calm - N/A   Clear
1:04 AM 24.8°F 24.8°F 100% 29.80 in 0.5 miles Calm Calm - N/A Fog Light Freezing Fog
1:53 AM 24.1°F 23.0°F 96% 29.86 in 0.5 miles Calm Calm - N/A Fog Light Freezing Fog
2:31 AM 26.6°F 24.8°F 93% 29.78 in 0.2 miles Calm Calm - N/A Fog Light Freezing Fog
2:38 AM 26.6°F 26.6°F 100% 29.78 in 0.2 miles Calm Calm - N/A Fog Light Freezing Fog
2:53 AM 26.1°F 25.0°F 96% 29.83 in 0.2 miles ESE 3.5 mph - N/A Fog Light Freezing Fog
3:42 AM 26.6°F 26.6°F 100% 29.76 in 0.2 miles Calm Calm - N/A Fog Light Freezing Fog
4:09 AM 26.6°F 26.6°F 100% 29.76 in 1.2 miles Calm Calm - N/A   Overcast
4:28 AM 26.6°F 26.6°F 100% 29.76 in 0.5 miles Calm Calm - N/A Fog Light Freezing Fog
4:53 AM 27.0°F 27.0°F 100% 29.82 in 0.5 miles Calm Calm - N/A Fog Light Freezing Fog
5:29 AM 28.4°F 26.6°F 93% 29.75 in 1.2 miles Calm Calm - N/A   Overcast
5:53 AM 28.0°F 27.0°F 96% 29.81 in 1.0 miles Calm Calm - N/A   Mist
6:01 AM 28.4°F 26.6°F 93% 29.75 in 0.8 miles Calm Calm - N/A   Mist
6:18 AM 28.4°F 26.6°F 93% 29.75 in 1.0 miles Calm Calm - N/A   Overcast
6:26 AM 28.4°F 26.6°F 93% 29.75 in 3.0 miles Calm Calm - N/A   Overcast
6:46 AM 26.6°F 26.6°F 100% 29.75 in 5.0 miles Calm Calm - N/A   Overcast
6:53 AM 27.0°F 27.0°F 100% 29.82 in 5.0 miles Calm Calm - N/A   Overcast
7:18 AM 28.4°F 26.6°F 93% 29.75 in 7.0 miles Calm Calm - N/A   Overcast
7:42 AM 28.4°F 26.6°F 93% 29.75 in 2.0 miles Calm Calm - 0.00 in Snow Light Snow
7:49 AM 28.4°F 26.6°F 93% 29.75 in 1.8 miles Calm Calm - 0.01 in Snow Light Snow
7:53 AM 28.0°F 27.0°F 96% 29.82 in 1.5 miles Calm Calm - 0.01 in Snow Light Snow
8:39 AM 28.4°F 26.6°F 93% 29.77 in 1.2 miles Calm Calm - 0.00 in Snow Light Snow
8:53 AM 28.0°F 27.0°F 96% 29.84 in 1.2 miles Calm Calm - 0.01 in Snow Light Snow
9:53 AM 28.0°F 28.0°F 100% 29.84 in 1.2 miles Calm Calm - 0.00 in Snow Light Snow
10:40 AM 28.4°F 28.4°F 100% 29.77 in 2.0 miles Calm Calm - 0.01 in Snow Light Snow
10:50 AM 28.4°F 28.4°F 100% 29.77 in 1.8 miles Calm Calm - 0.01 in Snow Light Snow
10:53 AM 28.0°F 28.0°F 100% 29.84 in 1.8 miles Calm Calm - 0.01 in Snow Light Snow
11:21 AM 28.4°F 28.4°F 100% 29.77 in 2.0 miles Calm Calm - 0.01 in Snow Light Snow
11:28 AM 28.4°F 28.4°F 100% 29.77 in 2.5 miles Calm Calm - 0.01 in Snow Light Snow
11:39 AM 28.4°F 28.4°F 100% 29.77 in 2.5 miles Calm Calm - 0.01 in Snow Light Snow
11:50 AM 30.2°F 28.4°F 93% 29.77 in 2.0 miles Calm Calm - 0.01 in Snow Light Snow
11:53 AM 28.9°F 28.9°F 100% 29.84 in 1.8 miles Calm Calm - 0.01 in Snow Light Snow
12:01 PM 28.4°F 28.4°F 100% 29.77 in 1.5 miles Calm Calm - 0.00 in Snow Light Snow
12:15 PM 30.2°F 28.4°F 93% 29.77 in 0.8 miles Calm Calm - 0.00 in Snow Light Snow
12:27 PM 30.2°F 28.4°F 93% 29.77 in 1.0 miles Calm Calm - 0.01 in Snow Light Snow
12:53 PM 28.9°F 28.9°F 100% 29.84 in 1.2 miles Calm Calm - 0.01 in Snow Light Snow
1:06 PM 30.2°F 28.4°F 93% 29.77 in 2.0 miles Calm Calm - 0.00 in Snow Light Snow
1:32 PM 30.2°F 28.4°F 93% 29.77 in 0.8 miles Calm Calm - 0.01 in Snow Light Snow
1:44 PM 30.2°F 28.4°F 93% 29.77 in 1.2 miles Calm Calm - 0.01 in Snow Light Snow
1:51 PM 30.2°F 28.4°F 93% 29.78 in 1.8 miles Calm Calm - 0.01 in Snow Light Snow
1:53 PM 30.0°F 28.9°F 96% 29.85 in 1.5 miles Calm Calm - 0.01 in Snow Light Snow
2:13 PM 30.2°F 28.4°F 93% 29.78 in 1.2 miles SSE 3.5 mph - 0.00 in Snow Light Snow
2:20 PM 30.2°F 28.4°F 93% 29.78 in 1.5 miles SSE 3.5 mph - 0.00 in Snow Light Snow
2:27 PM 30.2°F 28.4°F 93% 29.78 in 2.0 miles SSE 3.5 mph - 0.00 in Snow Light Snow
2:37 PM 28.4°F 28.4°F 100% 29.79 in 3.0 miles Calm Calm - 0.00 in Snow Light Snow
2:53 PM 30.0°F 28.0°F 92% 29.86 in 4.0 miles SSE 3.5 mph - 0.00 in   Overcast
3:05 PM 30.2°F 28.4°F 93% 29.79 in 5.0 miles Calm Calm - N/A   Overcast
3:53 PM 30.0°F 28.0°F 92% 29.88 in 4.0 miles Calm Calm - N/A   Overcast
4:53 PM 28.9°F 27.0°F 92% 29.90 in 5.0 miles Calm Calm - N/A   Overcast
5:30 PM 28.4°F 28.4°F 100% 29.84 in 5.0 miles Calm Calm - N/A   Overcast
5:53 PM 28.9°F 28.0°F 96% 29.91 in 4.0 miles Calm Calm - N/A   Overcast
6:53 PM 28.0°F 28.0°F 100% 29.92 in 5.0 miles Calm Calm - N/A   Overcast
7:50 PM 26.6°F 26.6°F 100% 29.86 in 3.0 miles Calm Calm - N/A   Overcast
7:53 PM 27.0°F 27.0°F 100% 29.93 in 2.5 miles Calm Calm - N/A   Overcast
8:09 PM 28.4°F 28.4°F 100% 29.86 in 4.0 miles Calm Calm - N/A   Overcast
8:39 PM 28.4°F 28.4°F 100% 29.86 in 4.0 miles Calm Calm - N/A   Overcast
8:53 PM 28.0°F 28.0°F 100% 29.94 in 4.0 miles Calm Calm - N/A   Overcast
9:03 PM 28.4°F 28.4°F 100% 29.87 in 4.0 miles Calm Calm - N/A   Overcast
9:53 PM 28.0°F 27.0°F 96% 29.95 in 5.0 miles Calm Calm - N/A   Overcast
10:01 PM 28.4°F 26.6°F 93% 29.88 in 1.5 miles Calm Calm - N/A   Overcast
10:04 PM 28.4°F 28.4°F 100% 29.88 in 0.8 miles Calm Calm - N/A   Overcast
10:11 PM 28.4°F 26.6°F 93% 29.88 in 0.2 miles Calm Calm - N/A Fog Light Freezing Fog
10:53 PM 28.0°F 28.0°F 100% 29.96 in 0.5 miles Calm Calm - N/A Fog Light Freezing Fog
11:03 PM 28.4°F 28.4°F 100% 29.89 in 0.5 miles Calm Calm - N/A Fog Light Freezing Fog
11:26 PM 28.4°F 26.6°F 93% 29.90 in 1.5 miles Calm Calm - N/A   Overcast
11:37 PM 28.4°F 26.6°F 93% 29.90 in 2.0 miles Calm Calm - N/A   Overcast
11:42 PM 28.4°F 26.6°F 93% 29.90 in 2.5 miles Calm Calm - N/A   Overcast
11:50 PM 28.4°F 28.4°F 100% 29.90 in 3.0 miles Calm Calm - N/A   Overcast
11:53 PM 28.0°F 27.0°F 96% 29.97 in 3.0 miles Calm Calm - N/A   Overcast
Moon Phase
Dec. 14 Dec. 20 Dec. 28 Jan. 04 Jan. 11
Sunrise:07:32 AM (PST) Moon Rise:08:36 AM (PST)12/14
Sunset:03:56 PM (PST) Moon Set:06:00 PM (PST)12/14

Copyright © 2014 The Weather Underground, Inc.